Station 51002 (LLNR 28005.1) - SOUTHWEST HAWAII - 215NM SSW of Hilo, HI Image indicating link to RSS feed of recent meteorological observations for station 51002


Conditions at 51002 as of
(4:00 pm HAST on 06/23/2024)
0200 GMT on 06/24/2024:
     

Click on the graph icon in the table below to see a time series plot of the last five days of that observation.

5-day plot - Wind Direction Wind Direction (WDIR):ENE ( 70 deg true )
5-day plot - Wind Speed Wind Speed (WSPD): 13.6 kts
5-day plot - Wind Gust Wind Gust (GST): 17.5 kts
5-day plot - Atmospheric Pressure Atmospheric Pressure (PRES):29.95 in
5-day plot - Pressure Tendency Pressure Tendency (PTDY):-0.03 in ( Falling )
5-day plot - Air Temperature Air Temperature (ATMP): 78.8 °F
5-day plot - Dew Point Dew Point (DEWP): 75.0 °F
5-day plot - Heat Index Heat Index (HEAT): 82.4 °F
5-day plot - Wind Speed at 10 Meters Wind Speed at 10 meters (WSPD10M): 15.5 kts
5-day plot - Wind Speed at 20 Meters Wind Speed at 20 meters (WSPD20M): 17.5 kts
5-day plot -  Wind Speed, Wind Gust and Atmospheric Pressure Combined plot of Wind Speed, Gust, and Air Pressure
Supplemental Measurements
Highest 1-minute Wind Speed
Time (HAST)5-day plot - 1-Minute Wind Speed WSPD 5-day plot - 1-Minute Wind Direction WDIR
3:54 pm 15.5 kts-
Previous observations
TIME
(HAST)
5-day plot - Wind Direction
WDIR
 
5-day plot - Wind Speed
WSPD
kts
5-day plot - Wind Gust
GST
kts
5-day plot - Wave Height
WVHT
ft
5-day plot - Dominant Wave Period
DPD
sec
5-day plot - Average Wave Period
APD
sec
5-day plot - Mean Wave Direction
MWD
 
5-day plot - Atmospheric Pressure
PRES
in
5-day plot - Pressure Tendency
PTDY
in
5-day plot - Air Temperature
ATMP
°F
5-day plot - Water Temperature
WTMP
°F
5-day plot - Dew Point
DEWP
°F
5-day plot - Salinity
SAL
psu
5-day plot - Visibility
VIS
nmi
5-day plot - Tide (above MLLW)
TIDE
ft
2024-06-23 03:50 pm E 15.5 19.4----29.96- 78.6- 74.7---
2024-06-23 03:40 pm E 13.6 19.4----29.95- 78.6- 74.8---
2024-06-23 03:30 pm E 15.5 17.5----29.95- 78.6- 74.7---
2024-06-23 03:20 pm E 13.6 17.5----29.96- 78.6- 74.8---
2024-06-23 03:10 pm E 13.6 17.5----29.96- 78.6- 74.5---
2024-06-23 03:00 pm E 15.5 17.5----29.96-0.03 78.6- 74.7---
2024-06-23 02:50 pmENE 13.6 19.4----29.96- 78.6- 75.0---
2024-06-23 02:40 pm E 13.6 17.5----29.96- 78.6- 74.7---
2024-06-23 02:30 pm E 15.5 19.4----29.97- 78.6- 74.5---
2024-06-23 02:20 pm E 15.5 19.4----29.97- 78.6- 74.7---
2024-06-23 02:10 pm-------29.97-------
2024-06-23 02:00 pm E 13.6 19.4----29.97-0.02 78.6- 74.5---
2024-06-23 01:50 pm E 15.5 19.4----29.97- 78.6- 74.5---
2024-06-23 01:40 pm E 15.5 19.4----29.98- 78.6- 74.8---
2024-06-23 01:30 pm E 15.5 17.5----29.98- 78.4- 74.5---
2024-06-23 01:20 pm E 15.5 17.5----29.98- 78.4- 74.3---
2024-06-23 01:10 pm E 15.5 17.5----29.98- 78.4- 74.3---
2024-06-23 01:00 pm E 15.5 17.5----29.98-0.01 78.4- 74.5---
2024-06-23 12:50 pm E 15.5 17.5----29.99- 78.4- 74.5---
2024-06-23 12:40 pm E 13.6 17.5----29.99- 78.4- 74.7---
2024-06-23 12:30 pm E 13.6 17.5----29.99- 78.4- 74.7---
2024-06-23 12:20 pm E 13.6 17.5----29.99- 78.6- 74.8---
2024-06-23 12:10 pm E 13.6 19.4----29.99- 78.4- 74.7---
2024-06-23 12:00 pm E 13.6 17.5----29.99+0.00 78.6- 74.7---
2024-06-23 11:50 am E 15.5 17.5----29.99- 78.6- 74.5---
2024-06-23 11:40 am E 15.5 19.4----30.00- 78.6- 74.7---
2024-06-23 11:30 am E 15.5 21.4----30.00- 78.4- 74.1---
2024-06-23 11:20 am E 15.5 19.4----30.00- 78.6- 74.7---
2024-06-23 11:10 am E 15.5 21.4----30.00- 78.4- 74.1---
2024-06-23 11:00 am E 15.5 19.4----30.00+0.01 78.6- 74.7---
2024-06-23 10:50 am E 15.5 19.4----29.99- 78.6- 74.3---
2024-06-23 10:40 am E 15.5 19.4----29.99- 78.4- 74.5---
2024-06-23 10:30 am E 15.5 19.4----29.99- 78.4- 74.5---
2024-06-23 10:20 am E 15.5 19.4----29.99- 78.3- 74.5---
2024-06-23 10:10 amENE 15.5 19.4----30.00- 78.3- 74.7---
2024-06-23 10:00 am E 15.5 19.4----30.00+0.01 78.4- 74.8---
2024-06-23 09:50 amENE 15.5 19.4----30.00- 78.3- 74.7---
2024-06-23 09:40 am E 15.5 19.4----30.00- 78.3- 74.7---
2024-06-23 09:30 am E 13.6 17.5----30.00- 78.4- 75.0---
2024-06-23 09:20 am E 15.5 17.5----30.00- 78.3- 74.7---
2024-06-23 09:10 am E 15.5 17.5----30.00- 78.3- 74.7---
2024-06-23 09:00 am E 15.5 19.4----30.00+0.02 78.3- 74.5---
2024-06-23 08:50 am E 15.5 19.4----29.99- 78.3- 74.3---
2024-06-23 08:40 am E 13.6 19.4----29.99- 78.3- 74.7---
2024-06-23 08:30 am E 13.6 17.5----29.99- 78.3- 74.8---
2024-06-23 08:20 am E 15.5 19.4----29.99- 78.1- 74.5---
2024-06-23 08:10 am E 13.6 19.4----29.99- 78.3- 74.5---
2024-06-23 08:00 am E 15.5 17.5----29.99+0.03 78.3- 74.7---
2024-06-23 07:50 am E 13.6 17.5----29.99- 78.3- 74.5---
2024-06-23 07:40 am E 13.6 17.5----29.99- 78.1- 74.3---
2024-06-23 07:30 am E 13.6 17.5----29.99- 78.1- 74.1---
2024-06-23 07:20 am E 13.6 17.5----29.99- 78.1- 74.1---
2024-06-23 07:10 am E 13.6 17.5----29.98- 78.1- 74.3---
2024-06-23 07:00 am E 15.5 19.4----29.98+0.02 77.9- 73.9---
2024-06-23 06:50 am E 15.5 19.4----29.98- 77.9- 74.1---
2024-06-23 06:40 am E 15.5 19.4----29.98- 77.9- 74.5---
2024-06-23 06:30 am E 15.5 19.4----29.98- 77.7- 73.9---
2024-06-23 06:20 am E 15.5 19.4----29.98- 77.7- 73.9---
2024-06-23 06:10 am E 15.5 19.4----29.97- 77.7- 73.9---
2024-06-23 06:00 am E 15.5 17.5----29.97+0.00 77.7- 73.9---
2024-06-23 05:50 am E 15.5 21.4----29.97- 77.7- 73.9---
2024-06-23 05:40 am E 15.5 19.4----29.97- 77.7- 74.1---
2024-06-23 05:30 am E 15.5 19.4----29.97- 77.7- 74.1---
2024-06-23 05:20 am E 17.5 21.4----29.97- 77.5- 73.9---
2024-06-23 05:10 am E 15.5 19.4----29.97- 77.7- 74.5---
2024-06-23 05:00 am E 15.5 19.4----29.96-0.01 77.7- 74.3---
2024-06-23 04:50 am E 15.5 19.4----29.96- 77.7- 74.1---
2024-06-23 04:40 am E 15.5 19.4----29.96- 77.7- 74.1---
2024-06-23 04:30 am E 15.5 19.4----29.96- 77.7- 73.9---
2024-06-23 04:20 am E 15.5 19.4----29.96- 77.7- 74.1---
2024-06-23 04:10 am E 15.5 19.4----29.96- 77.7- 74.1---
2024-06-23 04:00 am E 15.5 19.4----29.96-0.04 77.5- 73.9---
2024-06-23 03:50 am E 15.5 19.4----29.96- 77.7- 74.3---
2024-06-23 03:40 am E 17.5 19.4----29.96- 77.5- 73.8---
2024-06-23 03:30 am E 17.5 21.4----29.96- 77.5- 73.8---
2024-06-23 03:20 am E 17.5 21.4----29.96- 77.7- 74.3---
2024-06-23 03:10 am E 17.5 21.4----29.97- 77.7- 74.1---
2024-06-23 03:00 am E 17.5 21.4----29.96-0.05 77.7- 74.3---
2024-06-23 02:50 am E 17.5 23.3----29.97- 77.7- 74.1---
2024-06-23 02:40 am E 17.5 21.4----29.97- 77.9- 74.1---
2024-06-23 02:30 am E 17.5 23.3----29.97- 77.9- 73.8---
2024-06-23 02:20 am E 17.5 21.4----29.97- 77.9- 73.8---
2024-06-23 02:10 am E 17.5 21.4----29.97- 77.9- 73.8---
2024-06-23 02:00 am E 17.5 21.4----29.98-0.04 78.1- 73.9---
2024-06-23 01:50 am E 17.5 21.4----29.98- 78.1- 73.8---
2024-06-23 01:40 am E 19.4 23.3----29.98- 78.1- 73.4---
2024-06-23 01:30 am E 19.4 23.3----29.98- 78.1- 73.4---
2024-06-23 01:20 am E 17.5 21.4----29.99- 78.1- 73.8---
2024-06-23 01:10 am E 19.4 23.3----29.99- 78.1- 73.9---
2024-06-23 01:00 am E 19.4 23.3----30.00-0.01 78.3- 74.1---
2024-06-23 12:50 am E 17.5 21.4----30.00- 78.3- 74.3---
2024-06-23 12:40 am E 19.4 23.3----30.00- 78.3- 74.1---
2024-06-23 12:30 am E 19.4 23.3----30.01- 78.3- 74.3---
2024-06-23 12:20 am E 17.5 21.4----30.01- 78.3- 74.7---
2024-06-23 12:10 am E 17.5 21.4----30.01- 78.3- 74.8---
2024-06-23 12:00 am E 17.5 21.4----30.01+0.02 78.1- 75.0---
2024-06-22 11:50 pm E 15.5 21.4----30.01- 78.1- 75.4---
2024-06-22 11:40 pm E 15.5 21.4----30.01- 78.1- 75.2---
2024-06-22 11:30 pm E 17.5 21.4----30.02- 78.1- 75.2---
2024-06-22 11:20 pm E 15.5 19.4----30.01- 78.1- 75.4---
2024-06-22 11:10 pm E 15.5 21.4----30.02- 77.9- 75.2---
2024-06-22 11:00 pm E 15.5 21.4----30.02+0.05 77.7- 75.2---
2024-06-22 10:50 pmENE 15.5 17.5----30.02- 77.9- 75.7---
2024-06-22 10:40 pm E 15.5 19.4----30.02- 77.7- 75.6---
2024-06-22 10:30 pmENE 13.6 17.5----30.02- 77.7- 75.7---
2024-06-22 10:20 pmENE 13.6 17.5----30.01- 78.1- 75.7---
2024-06-22 10:10 pm E 15.5 19.4----30.01- 78.1- 75.2---
2024-06-22 10:00 pm E 13.6 17.5----30.00+0.05 77.7- 75.0---
2024-06-22 09:50 pm E 13.6 19.4----30.00- 77.5- 75.0---
2024-06-22 09:40 pm E 13.6 17.5----30.00- 77.4- 75.2---
2024-06-22 09:30 pm E 11.7 15.5----30.00- 77.2- 75.4---
2024-06-22 09:20 pm E 13.6 17.5----30.00- 76.6- 75.0---
2024-06-22 09:10 pm E 15.5 21.4----30.00- 77.0- 75.0---
2024-06-22 09:00 pm E 13.6 19.4----29.99+0.05 78.3- 75.0---
2024-06-22 08:50 pm E 13.6 15.5----29.99- 78.6- 75.0---
2024-06-22 08:40 pmENE 13.6 17.5----29.98- 78.4- 74.5---
2024-06-22 08:30 pmENE 13.6 17.5----29.98- 78.4- 74.3---
2024-06-22 08:20 pmENE 13.6 17.5----29.98- 78.3- 74.3---
2024-06-22 08:10 pmENE 13.6 17.5----29.97- 78.3- 74.5---
2024-06-22 08:00 pmENE 13.6 17.5----29.97+0.04 78.3- 74.8---
2024-06-22 07:50 pmENE 11.7 15.5----29.97- 78.3- 74.8---
2024-06-22 07:40 pmENE 11.7 15.5----29.97- 78.3- 74.8---
2024-06-22 07:30 pmENE 11.7 15.5----29.96- 78.3- 74.7---
2024-06-22 07:20 pmENE 13.6 15.5----29.96- 78.3- 74.7---
2024-06-22 07:10 pmENE 11.7 15.5----29.96- 78.3- 74.5---
2024-06-22 07:00 pmENE 13.6 17.5----29.96+0.02 78.3- 74.5---
2024-06-22 06:50 pmENE 13.6 15.5----29.95- 78.3- 74.3---
2024-06-22 06:40 pmENE 13.6 15.5----29.95- 78.3- 74.3---
2024-06-22 06:30 pmENE 11.7 15.5----29.95- 78.4- 74.7---
2024-06-22 06:20 pmENE 11.7 15.5----29.95- 78.4- 74.7---
2024-06-22 06:10 pmENE 11.7 15.5----29.95- 78.3- 74.3---
2024-06-22 06:00 pmENE 11.7 15.5----29.94-0.01 78.3- 74.3---
2024-06-22 05:50 pmENE 11.7 15.5----29.94- 78.4- 74.5---
2024-06-22 05:40 pmENE 11.7 15.5----29.94- 78.4- 74.3---
2024-06-22 05:30 pmENE 11.7 13.6----29.94- 78.4- 74.3---
2024-06-22 05:20 pmENE 11.7 15.5----29.94- 78.4- 74.3---
2024-06-22 05:10 pmENE 11.7 15.5----29.94- 78.3- 74.1---
2024-06-22 05:00 pmENE 11.7 15.5----29.94-0.03 78.4- 74.5---
2024-06-22 04:50 pmENE 11.7 15.5----29.93- 78.4- 74.5---
2024-06-22 04:40 pmENE 13.6 15.5----29.93- 78.4- 74.1---
2024-06-22 04:30 pmENE 13.6 17.5----29.93- 78.4- 73.9---
2024-06-22 04:20 pmENE 13.6 17.5----29.93- 78.4- 73.8---
2024-06-22 04:10 pmENE 13.6 17.5----29.94- 78.4- 73.9---
2024-06-22 04:00 pmENE 13.6 17.5----29.94-0.04 78.4- 73.9---
2024-06-22 03:50 pmENE 13.6 17.5----29.94- 78.6- 74.5---